Bartlesville, OK

1:45 PM CDT on September 21, 2017 (GMT -0500)
Bartlesville Municipal

Weather History for KBVO - January, 2013

Change the Weather History Date:

Wednesday, January 2, 2013

  Actual Average Record
Temperature  
Mean Temperature 24 °F -  
Max Temperature 39 °F 46 °F 57 °F (2017)
Min Temperature 10 °F 23 °F 25 °F (2016)
Degree Days  
Heating Degree Days 40    
Moisture  
Dew Point 20 °F    
Average Humidity 80    
Maximum Humidity 92    
Minimum Humidity 60    
Precipitation  
Precipitation 0.00 in - - ()
Sea Level Pressure  
Sea Level Pressure 30.29 in    
Wind  
Wind Speed 3 mph (WSW)    
Max Wind Speed 13 mph    
Max Gust Speed 16 mph    
Visibility 10 miles    
Events      
Averages and records for this station are not official NWS values.
T = Trace of Precipitation, MM = Missing Value Source: NWS Daily Summary

Daily Weather History Graph

Daily Weather History Graph

Search for Another Location

Airport or City:

Trip Planner

Search our weather history database for the weather conditions in past years. The results will help you decide how hot, cold, wet, or windy it might be!

Date:

Astronomy

Jan. 02, 2013 Rise Set
Actual Time 7:36 AM CST 5:19 PM CST
Civil Twilight 7:08 AM CST 5:48 PM CST
Nautical Twilight 6:35 AM CST 6:20 PM CST
Astronomical Twilight 6:04 AM CST 6:52 PM CST
Moon 10:44 PM CST (1/2) 10:27 AM CST (1/2)
Length of Visible Light 10h 40m
Length of Day
9h 42m
Waning Gibbous, 75% of the Moon is Illuminated
Jan 2
Waning Gibbous
Jan 4
Last Quarter
Jan 11
New
Jan 18
First Quarter
Jan 26
Full

Hourly Weather History & Observations

Time (CST) Temp. Windchill Dew Point Humidity Pressure Visibility Wind Dir Wind Speed Gust Speed Precip Events Conditions
12:53 AM 14.0 °F - 12.0 °F 92% 30.33 in 10.0 mi Calm Calm - N/A   Clear
1:53 AM 14.0 °F - 10.9 °F 88% 30.34 in 10.0 mi Calm Calm - N/A   Clear
2:53 AM 12.0 °F - 10.0 °F 92% 30.34 in 10.0 mi Calm Calm - N/A   Clear
3:53 AM 14.0 °F - 10.9 °F 88% 30.32 in 10.0 mi Calm Calm - N/A   Clear
4:53 AM 10.9 °F - 9.0 °F 92% 30.32 in 10.0 mi Calm Calm - N/A   Clear
5:53 AM 12.0 °F - 9.0 °F 88% 30.31 in 10.0 mi Calm Calm - N/A   Clear
6:53 AM 10.9 °F - 9.0 °F 92% 30.31 in 10.0 mi Calm Calm - N/A   Clear
7:53 AM 10.9 °F - 9.0 °F 92% 30.31 in 9.0 mi Calm Calm - N/A   Clear
9:53 AM 26.1 °F 20.5 °F 23.0 °F 88% 30.32 in 6.0 mi SSW 4.6 mph - N/A   Clear
10:53 AM 30.9 °F 21.2 °F 25.0 °F 79% 30.32 in 8.0 mi SW 12.7 mph 16.1 mph N/A   Clear
11:53 AM 34.0 °F 27.2 °F 27.0 °F 75% 30.27 in 10.0 mi SW 8.1 mph - N/A   Unknown
12:53 PM 36.0 °F 28.0 °F 27.0 °F 70% 30.24 in 10.0 mi SSW 11.5 mph - N/A   Partly Cloudy
1:20 PM 35.6 °F 28.0 °F 26.6 °F 70% 30.22 in 10.0 mi West 10.4 mph - N/A   Mostly Cloudy
1:29 PM 37.4 °F 31.4 °F 26.6 °F 65% 30.21 in 10.0 mi SSW 8.1 mph 16.1 mph N/A   Scattered Clouds
1:53 PM 37.9 °F 33.5 °F 27.0 °F 65% 30.21 in 10.0 mi WSW 5.8 mph - N/A   Clear
2:53 PM 39.0 °F 32.8 °F 27.0 °F 62% 30.21 in 10.0 mi SW 9.2 mph - N/A   Clear
3:53 PM 39.9 °F 35.1 °F 28.0 °F 63% 30.22 in 10.0 mi Variable 6.9 mph - N/A   Clear
4:53 PM 39.0 °F 33.4 °F 26.1 °F 60% 30.23 in 10.0 mi West 8.1 mph - N/A   Clear
5:53 PM 36.0 °F 31.1 °F 25.0 °F 64% 30.25 in 10.0 mi WNW 5.8 mph - N/A   Clear
6:53 PM 32.0 °F 26.4 °F 25.0 °F 75% 30.27 in 10.0 mi West 5.8 mph - N/A   Scattered Clouds
7:53 PM 25.0 °F - 21.9 °F 88% 30.30 in 10.0 mi Calm Calm - N/A   Clear
8:53 PM 26.1 °F - 21.9 °F 84% 30.31 in 10.0 mi Calm Calm - N/A   Clear
9:53 PM 28.0 °F - 24.1 °F 85% 30.32 in 10.0 mi Calm Calm - N/A   Clear
10:53 PM 27.0 °F - 23.0 °F 85% 30.34 in 10.0 mi Calm Calm - N/A   Clear
11:53 PM 24.1 °F - 21.0 °F 88% 30.33 in 10.0 mi Calm Calm - N/A   Clear